Starlink 4038

operational
NORAD ID: 53150 Int'l Des: 2022-083 Owner: SPXS Country: US Constellation: starlink
LEOCIRCULAR

关于 Starlink 4038

正在加载描述...

实时位置

正在加载3D地球...

即将过境

高度历史

Altitude vs Time

uPlot chart will show altitude changes over time

两行轨道根数

1 53150U 22083U 25305.50348645 .00100294 00000-0 60771-2 0 9998
2 53150 53.2182 19.5547 0000897 65.7762 294.3324 15.09753918182001
Epoch: Nov 1, 2025 • Age: 22 hours

当前状态

高度 539.7 km
速度 7.60 km/s
星下点 41.42°N, 144.17°W
发射日期 Jul 17, 2022
运行时间 3.2 years
类型 internet

技术详情

分类 Payload
质量 297.00 kg
干质量 275.00 kg
总质量 297.00 kg
长度 0.20 m
直径 2.80 m
跨度 9.00 m
形状 Box + pan
制造商 SPXS
平台类型 Starlink
阶段状态 In Orbit
所有者/国家 SPXS/US

大型星座

Loading constellations...